Simultaneous Nadir Overpasses (SNOs) Predictions

Prediction of SNOs between METOP-A and TERRA Satellite Orbit:

Table of predicted SNOs for the next 14.0 days since TLE Epoch: 9/5/2015
Index Date (METOP-A) Time (METOP-A) Lat,Lon (METOP-A) SZA (METOP-A ) Date (TERRA) Time (TERRA) Lat,Lon (TERRA) SZA (TERRA ) Distance(km) Time Diff (sec)
1 09/06/2015 08:50:11 -81.35, -84.56 102.23 09/06/2015 08:51:18 -81.35, -84.53 102.19 0.57 67
2 09/06/2015 09:40:51 81.36, 83.04 77.82 09/06/2015 09:40:44 81.36, 83.23 77.84 3.21 7
3 09/09/2015 04:24:32 -81.35, -18.16 101.15 09/09/2015 04:25:30 -81.35, -18.11 101.12 0.72 58
4 09/09/2015 05:15:12 81.36, 149.43 78.90 09/09/2015 05:14:56 81.36, 149.62 78.91 3.07 16
5 09/11/2015 23:58:52 -81.35, 48.23 100.07 09/11/2015 23:59:41 -81.35, 48.22 100.05 0.82 49
6 09/12/2015 00:49:31 81.36,-143.79 80.03 09/12/2015 00:49:06 81.37,-143.69 80.03 2.06 25
7 09/14/2015 19:33:12 -81.36, 114.99 98.93 09/14/2015 19:33:52 -81.36, 114.86 98.92 2.18 40
8 09/14/2015 20:23:52 81.36, -77.44 81.12 09/14/2015 20:23:18 81.36, -77.46 81.10 0.37 34
9 09/17/2015 15:07:33 -81.36,-178.66 97.83 09/17/2015 15:08:03 -81.36,-178.58 97.80 1.48 30




NCC Satellite Simultaneous Nadir Overpasses (SNOs) Prediction Service
